Showing default

O3B FM14, 43233

Orbit data source: Space-Track

O3B FM14, 43233 is a payload satellite owned by O3B SES (JE) that was launched on Fri, 09 Mar 2018 UTC via a SOYUZ-ST-B launch vehicle from the French Guiana (FRGUI). Payloads include a variety of satellites, spacecraft, and rockets equipped with specific instruments for various scientific and technological missions. These include communications satellites like Starlink; space stations such as the ISS; scientific satellites like the Hubble; Earth observation satellites from companies like Planet Labs, Umbra, and HawkEye 360; GPS; miniature CubeSats for education and research; and military/defense satellites.

Loading next visibility...
O3B FM14 details
Identifier
43233, 2018-024C
Orbit
Active
Last TLE update3 days ago
Origin
Flag of JEO3B SES (JE / O3B)
ManufacturerThales Alenia
MissionOperational Commercial Communications
Bus & MotorPRISMA?, LS-400 AOCS?
Mass700 kg wet, ~500 kg dry
Launch date (UTC)
2018-03-09 (7 years ago)
Launch vehicle
SOYUZ-ST-B
Launch site
French Guiana (FRGUI)
Object type
Payload
Rocket body
Debris
Shape & HBRTrap Box + 2 Pan, 12 m
Radar Cross Section21.980 m², Large (>1 m²)

Expand to show TLE details & history

TLE from 3 days ago
0 O3B FM14
1 43233U 18024C   24358.88157699 -.00000016  00000-0  00000-0 0  9993
2 43233   0.0568   6.4545 0002841 267.2226  86.2911  5.00115118123928
Epoch: 2024-12-23T21:09Z
Definitive object data (Epoch: 2024-12-23T21:09:28.251Z)
Latitude-0.00618°
Longitude-50.26542°
Altitude8,064.116 km
Speed5.254 km/s
True Right ascension23h 59m 59s
True Declination0° 00' 22"
Sunlit
Object was in daylight at TLE epoch
Visualization TLE readout
Latitude0.06125°
Longitude51.50583°
Altitude8,068.453 km
Speed5.253 km/s
Apparent Right ascension07h 31m 53s
Apparent Declination-12° 34' 14"
Sunlit
Object is in full shadow
Visualization observer readout
Local Sidereal Time21:51:40
Azimuth58.217° ENE
Elevation-48.874°
Doppler factor1
Orbital elements
Apogee altitude8,073.06 km
Perigee altitude8,064.852 km
Semi-major axis14,447.093 km
Eccentricity0.0002841
Inclination0.0568°
RAAN6.4545°
Arg. of periapsis267.2226°
True anomaly86.32359°
Mean anomaly86.2911°
Eccentric anomaly86.30734°
Mean motion1.24989 °/min
BSTARUnknown
Orbital period288.02 mins
Loading maneuver chart data...
Loading historical data...
Loading historical data...
Loading historical data...
Loading historical data...
Loading historical data...
Loading historical data...
Loading historical data...
Other satellites on launch #24 in the year 2018 (2018-03-09 UTC)

O3B FM14 Visibility forecast

Observer location: undefined°, undefined

Span
Click to sort rows by Start time (UTC) header in descending order
Start Az.
Max El. time (UTC)
Max El. Az.
Max El.
End time (UTC)
End Az.
79 mins2024-12-27 01:35:30.773Z231.741° WSW2024-12-27 02:14:30.773Z180.177° SSW24.392°2024-12-27 02:54:30.773Z127.451° SE
79 mins2024-12-27 07:35:30.773Z231.817° WSW2024-12-27 08:14:30.773Z180.243° SSW24.431°2024-12-27 08:54:30.773Z127.521° SE
79 mins2024-12-27 13:35:30.773Z231.842° WSW2024-12-27 14:14:30.773Z180.274° SSW24.346°2024-12-27 14:54:30.773Z127.562° SE
78 mins2024-12-27 19:36:30.773Z230.766° WSW2024-12-27 20:14:30.773Z180.21° SSW24.309°2024-12-27 20:54:30.773Z127.492° SE
|